Toledo, OH

1:55 PM EDT on August 19, 2017 (GMT -0400)
Toledo Express

Weather History for KTOL - November, 2011

Change the Weather History Date:

Monday, November 28, 2011

  Actual Average Record
Temperature  
Mean Temperature 38 °F 36 °F  
Max Temperature 40 °F 43 °F 68 °F (1990)
Min Temperature 35 °F 29 °F 6 °F (1955)
Degree Days  
Heating Degree Days 27 29  
Month to date heating degree days 529 649  
Since 1 July heating degree days 1052 1175  
Cooling Degree Days 0 0  
Month to date cooling degree days 0 0  
Year to date cooling degree days 997 793  
Moisture  
Dew Point 34 °F    
Average Humidity 86    
Maximum Humidity 92    
Minimum Humidity 79    
Precipitation  
Precipitation 0.32 in 0.10 in 1.38 in (1973)
Month to date precipitation 4.36 2.66  
Year to date precipitation 42.63 31.36  
Snow  
Snow 0.00 in 0.20 in - ()
Month to date snowfall T 1.7  
Since 1 July snowfall T 1.9  
Since 1 September snowfall T 1.9  
Snow Depth 0.00 in    
Sea Level Pressure  
Sea Level Pressure 30.03 in    
Wind  
Wind Speed 10 mph (NNE)    
Max Wind Speed 16 mph    
Max Gust Speed 21 mph    
Visibility 8 miles    
Events Rain    
T = Trace of Precipitation, MM = Missing Value Source: NWS Daily Summary

Daily Weather History Graph

Daily Weather History Graph

Search for Another Location

Airport or City:

Trip Planner

Search our weather history database for the weather conditions in past years. The results will help you decide how hot, cold, wet, or windy it might be!

Date:

Astronomy

Nov. 28, 2011 Rise Set
Actual Time 7:38 AM EST 5:07 PM EST
Civil Twilight 7:08 AM EST 5:37 PM EST
Nautical Twilight 6:33 AM EST 6:12 PM EST
Astronomical Twilight 6:00 AM EST 6:45 PM EST
Moon 10:47 AM EST (11/28) 8:53 PM EST (11/28)
Length of Visible Light 10h 29m
Length of Day
9h 28m
Waxing Crescent, 15% of the Moon is Illuminated
Nov 28
Waxing Crescent
Dec 2
First Quarter
Dec 10
Full
Dec 17
Last Quarter
Dec 24
New

Hourly Weather History & Observations

Time (EST) Temp. Windchill Dew Point Humidity Pressure Visibility Wind Dir Wind Speed Gust Speed Precip Events Conditions
12:44 AM 37.4 °F 29.8 °F 33.8 °F 87% 30.03 in 10.0 mi North 11.5 mph - 0.01 in Rain Light Rain
12:52 AM 37.0 °F 31.0 °F 35.1 °F 93% 30.03 in 9.0 mi North 8.1 mph - 0.01 in Rain Light Rain
1:52 AM 36.0 °F 29.0 °F 33.1 °F 89% 30.06 in 10.0 mi North 9.2 mph - 0.02 in Rain Light Rain
2:52 AM 36.0 °F 29.6 °F 32.0 °F 86% 30.07 in 10.0 mi North 8.1 mph - 0.00 in   Overcast
3:52 AM 36.0 °F 29.6 °F 33.1 °F 89% 30.07 in 10.0 mi North 8.1 mph - N/A   Overcast
4:07 AM 35.6 °F 29.9 °F 33.8 °F 93% 30.07 in 10.0 mi NNE 6.9 mph - N/A   Overcast
4:52 AM 36.0 °F 30.3 °F 33.1 °F 89% 30.09 in 10.0 mi North 6.9 mph - N/A   Overcast
5:14 AM 35.6 °F 28.6 °F 30.2 °F 81% 30.09 in 10.0 mi North 9.2 mph 20.7 mph N/A   Overcast
5:52 AM 35.1 °F 27.4 °F 30.0 °F 82% 30.12 in 10.0 mi North 10.4 mph - N/A   Overcast
6:21 AM 35.6 °F 28.6 °F 28.4 °F 75% 30.09 in 10.0 mi NNE 9.2 mph - N/A   Overcast
6:52 AM 35.1 °F 27.4 °F 30.0 °F 82% 30.10 in 10.0 mi NE 10.4 mph - N/A   Overcast
7:52 AM 35.1 °F 28.6 °F 30.0 °F 82% 30.12 in 10.0 mi NE 8.1 mph - N/A   Overcast
8:11 AM 35.6 °F 28.6 °F 30.2 °F 81% 30.09 in 10.0 mi NNE 9.2 mph - N/A   Overcast
8:52 AM 35.1 °F 27.4 °F 30.0 °F 82% 30.11 in 10.0 mi NNE 10.4 mph - N/A   Overcast
9:52 AM 37.0 °F 29.8 °F 32.0 °F 82% 30.11 in 10.0 mi NE 10.4 mph - N/A   Overcast
10:52 AM 37.9 °F 31.5 °F 33.1 °F 83% 30.10 in 10.0 mi NE 9.2 mph - N/A   Overcast
11:52 AM 39.0 °F 32.3 °F 33.1 °F 79% 30.09 in 10.0 mi NE 10.4 mph - N/A   Overcast
12:52 PM 39.9 °F 32.9 °F 34.0 °F 79% 30.05 in 10.0 mi NE 11.5 mph - N/A   Overcast
1:52 PM 39.0 °F 32.8 °F 35.1 °F 86% 30.03 in 5.0 mi NE 9.2 mph - N/A   Overcast
2:03 PM 39.2 °F 33.0 °F 35.6 °F 87% 30.01 in 3.0 mi NE 9.2 mph - N/A   Overcast
2:52 PM 39.0 °F 31.8 °F 35.1 °F 86% 30.01 in 10.0 mi NE 11.5 mph - N/A   Overcast
3:52 PM 39.0 °F 32.3 °F 35.1 °F 86% 30.00 in 8.0 mi NE 10.4 mph - 0.01 in Rain Light Rain
4:52 PM 39.0 °F 31.8 °F 35.1 °F 86% 30.02 in 5.0 mi NE 11.5 mph - 0.03 in Rain Light Rain
5:52 PM 39.0 °F 32.8 °F 36.0 °F 89% 30.01 in 7.0 mi NE 9.2 mph - 0.03 in Rain Light Rain
6:43 PM 39.2 °F 32.5 °F 35.6 °F 87% 29.97 in 7.0 mi NNE 10.4 mph - 0.00 in Rain Light Rain
6:52 PM 39.0 °F 31.4 °F 36.0 °F 89% 29.97 in 7.0 mi NNE 12.7 mph - 0.00 in Rain Light Rain
7:52 PM 39.0 °F 31.8 °F 36.0 °F 89% 29.96 in 9.0 mi NNE 11.5 mph - 0.00 in   Overcast
8:52 PM 39.0 °F 31.8 °F 36.0 °F 89% 29.96 in 9.0 mi NE 11.5 mph - 0.00 in   Overcast
9:36 PM 39.2 °F 33.0 °F 37.4 °F 93% 29.95 in 2.5 mi NE 9.2 mph - 0.04 in Rain Rain
9:52 PM 39.0 °F 32.8 °F 37.0 °F 93% 29.96 in 2.5 mi NE 9.2 mph - 0.08 in Rain Rain
10:05 PM 37.4 °F 30.3 °F 37.4 °F 100% 29.92 in 3.0 mi NNE 10.4 mph - 0.04 in Rain Rain
10:52 PM 39.0 °F 31.0 °F 37.0 °F 93% 29.91 in 7.0 mi NE 13.8 mph - 0.09 in Rain Light Rain
11:52 PM 39.0 °F 32.8 °F 37.0 °F 93% 29.89 in 4.0 mi NE 9.2 mph - 0.04 in Rain Rain